Location: Cortos
(40.7190°N, 4.5893°W)
Time: 08:17:36
(UTC+00:00)

Cosmos 2278 Rocket - Pass Details

Date: 05 July 2020
Orbit: 841 x 846 km, 71.0° (Epoch: 07 August)

Event Time Altitude Azimuth Distance (km) Brightness Sun altitude
Rises 22:45:16 0° 337° (NNW) 3,412 6.9 -22.7°
Reaches altitude 10° 22:47:44 10° 339° (NNW) 2,473 5.8 -22.8°
Maximum altitude 22:53:25 79° 66° (ENE) 864 2.1 -23.3°
Enters shadow 22:54:42 55° 140° (SE) 1,011 2.2 -23.4°
